{"data":{"norad_id":68074,"intl_designator":"2026-042F","name":"STARLINK-37045","alt_names":[],"object_type":"PAYLOAD","status":"ACTIVE","operator":null,"country":"US","launch_date":"2026-03-04","launch_site_code":"AFETR","launch_vehicle":null,"mission":null,"orbit_class":"UNKNOWN","rcs_meters":null,"size_class":null,"mass_kg":null,"dimensions":null,"purposes":["comms"],"wikipedia_slug":null,"has_3d_model":false,"image_url":null,"decayed_at":null,"tle_current":{"epoch":"2026-09-19T18:14:40.871328Z","epoch_age_seconds":119450,"freshness":"FRESH","line1":"1 68074U 26042F   26262.76019527  .00019346  00000+0  58202-3 0  9996","line2":"2 68074  53.1604 353.3713 0001654  54.8961 305.2196 15.34411004 32071","mean_motion":15.34411004,"eccentricity":0.0001654,"inclination_deg":53.1604,"raan_deg":353.3713,"arg_perigee_deg":54.8961,"mean_anomaly_deg":305.2196,"bstar":0.00058202,"rev_number":3207,"period_min":93.847085053882,"perigee_km":461.53906462942,"apogee_km":463.80200376173,"semimajor_km":6840.8075341956,"source":"CELESTRAK","updated_at":"2026-09-20T09:00:43.777980Z"}}}